Location: ????
(30.1475°N, 31.1342°E)
Time: 10:17:37
(UTC+00:00)

COSMOS 2251 DEB - Pass Details

Date: 05 June 2024
Orbit: 760 x 785 km, 73.9° (Epoch: 19 June)

Event Time Altitude Azimuth Distance (km) Brightness Sun altitude
Rises 02:05:03 0° 333° (NNW) 3,243 ? -9.9°
Reaches altitude 10° 02:07:35 10° 325° (NW) 2,309 ? -9.5°
Maximum altitude 02:12:21 37° 259° (W) 1,177 ? -8.6°
Drops below altitude 10° 02:17:05 10° 193° (SSW) 2,286 ? -7.7°
Sets 02:19:36 0° 185° (S) 3,205 ? -7.3°
